Location: Unspecified
(0.0000°N, 0.0000°E)
Time: 11:11:57
(UTC+01:00)

Iridium 15 - Visible Passes

Search period start: 24 February 2018 00:00
Search period end: 06 March 2018 00:00
Orbit: 762 x 764 km, 86.4° (Epoch: 23 February)

Date Brightness Start Highest point End Pass type
(mag) Time Alt. Az. Time Alt. Az. Time Alt. Az.
24 Feb 6.9 20:56:51 34° SSE 20:56:51 34° SSE 20:59:46 10° S visible
25 Feb 6.9 20:16:48 25° E 20:16:56 25° E 20:21:04 10° SE visible
25 Feb 8.4 21:56:44 18° W 21:57:03 18° W 22:00:26 10° SW visible
26 Feb 7.0 21:14:26 10° NNW 21:19:18 45° W 21:24:12 10° SSW visible
27 Feb 5.8 20:36:27 10° N 20:41:33 71° E 20:46:40 10° S visible
28 Feb 6.8 19:59:30 10° NNE 20:03:48 27° E 20:08:07 10° SSE visible
28 Feb 8.7 21:40:53 10° NW 21:43:55 16° W 21:46:59 10° SW visible
01 Mar 7.2 21:01:24 10° NNW 21:06:10 40° W 21:10:59 10° SSW visible
02 Mar 5.8 20:23:18 10° N 20:28:26 79° E 20:33:35 10° S visible
03 Mar 6.7 19:46:13 10° NNE 19:50:41 30° E 19:55:10 10° SSE visible
03 Mar 8.9 21:28:08 10° WNW 21:30:48 14° W 21:33:28 10° WSW visible
04 Mar 7.5 20:48:23 10° NNW 20:53:03 36° W 20:57:45 10° SSW visible
05 Mar 5.9 20:10:10 10° N 20:15:18 87° E 20:20:28 10° S visible
